User: anonymous   Login
Location: Congrier
(47.8099°N, 1.1170°W)
Time: 15:22:52
(UTC+00:00)
Language:

PAYLOAD B - Orbit

View from above orbital plane
View from above orbital plane
View from above satellite
View from above satellite

Ground track
Ground track

The orbit data is extracted from the following two-line orbital elements,

1 27431U 02024B   23161.31644753  .00000094  00000-0  79423-4 0  9993
2 27431  99.0984 191.5582 0016540  98.2512 262.0534 14.09862781 84136
Epoch (UTC): 10 June 2023 07:35:41
Eccentricity: 0.0016540
inclination: 99.0984°
perigee height: 848 km
apogee height: 872 km
right ascension of ascending node: 191.5582°
argument of perigee: 98.2512°
revolutions per day: 14.09862781
mean anomaly at epoch: 262.0534°
orbit number at epoch: 8413

The dashed part of the orbit path shows where the satellite is in the earth's shadow,  

DLR